• In Belarus
  • List of Countries
  • For 7 days
  • Water Temperature
  • Satellite Maps
  • Weather Map
  • Weather Widgets
  • user-avatar
    Login

    Hourly Weather Ivano-Frankivs'k

    Today, 17 October, Tuesday

    Time Temperature Precipitation Wind Pressure Humidity
    00:00 +14°C° 0 mm 2 mps 745 mmHg 78%
    01:00 +14°C° 0 mm 2 mps 745 mmHg 79%
    02:00 +13°C° 0 mm 3 mps 745 mmHg 76%
    03:00 +13°C° 0 mm 3 mps 745 mmHg 77%
    04:00 +13°C° 0 mm 3 mps 745 mmHg 79%
    05:00 +12°C° 0 mm 3 mps 745 mmHg 80%
    06:00 +14°C° 0 mm 2 mps 745 mmHg 79%
    07:00 +14°C° 0 mm 2 mps 745 mmHg 79%
    08:00 +15°C° 0 mm 2 mps 746 mmHg 76%
    09:00 +17°C° 0 mm 2 mps 746 mmHg 68%
    10:00 +19°C° 0 mm 2 mps 746 mmHg 61%
    11:00 +21°C° 0 mm 2 mps 746 mmHg 54%
    12:00 +23°C° 0 mm 2 mps 746 mmHg 52%
    13:00 +23°C° 0 mm 2 mps 745 mmHg 49%
    14:00 +24°C° 0 mm 2 mps 745 mmHg 47%
    15:00 +23°C° 0 mm 2 mps 745 mmHg 53%
    16:00 +21°C° 0 mm 1 mps 744 mmHg 59%
    17:00 +20°C° 0 mm 1 mps 744 mmHg 65%
    18:00 +19°C° 0 mm 1 mps 744 mmHg 69%
    19:00 +16°C° 0 mm 1 mps 744 mmHg 73%
    20:00 +15°C° 0 mm 1 mps 744 mmHg 76%
    21:00 +15°C° 0 mm 1 mps 744 mmHg 76%
    22:00 +14°C° 0 mm 1 mps 744 mmHg 76%
    23:00 +14°C° 0 mm 1 mps 744 mmHg 76%

    Tomorrow, 18 October, Wednesday

    Time Temperature Precipitation Wind Pressure Humidity
    00:00 +14°C° 0 mm 1 mps 743 mmHg 75%
    01:00 +13°C° 0 mm 1 mps 743 mmHg 75%
    02:00 +13°C° 0 mm 1 mps 743 mmHg 74%
    03:00 +13°C° 0 mm 1 mps 743 mmHg 74%
    04:00 +13°C° 0 mm 1 mps 742 mmHg 73%
    05:00 +12°C° 0 mm 1 mps 742 mmHg 73%
    06:00 +13°C° 0 mm 1 mps 742 mmHg 71%
    07:00 +13°C° 0 mm 1 mps 742 mmHg 70%
    08:00 +14°C° 0 mm 1 mps 742 mmHg 69%
    09:00 +16°C° 0 mm 1 mps 742 mmHg 61%
    10:00 +20°C° 0 mm 1 mps 741 mmHg 53%
    11:00 +22°C° 0 mm 1 mps 741 mmHg 46%
    12:00 +23°C° 0 mm 1 mps 741 mmHg 44%
    13:00 +24°C° 0 mm 1 mps 741 mmHg 42%
    14:00 +25°C° 0 mm 1 mps 740 mmHg 39%
    15:00 +24°C° 0 mm 1 mps 740 mmHg 45%
    16:00 +22°C° 0 mm 1 mps 740 mmHg 51%
    17:00 +21°C° 0 mm 1 mps 739 mmHg 57%
    18:00 +19°C° 0 mm 1 mps 739 mmHg 59%
    19:00 +18°C° 0 mm 1 mps 739 mmHg 61%
    20:00 +16°C° 0 mm 1 mps 739 mmHg 64%
    21:00 +16°C° 0 mm 1 mps 739 mmHg 64%
    22:00 +15°C° 0 mm 1 mps 739 mmHg 64%
    23:00 +15°C° 0 mm 1 mps 739 mmHg 63%

    Day after tomorrow, 19 October, Thursday

    Time Temperature Precipitation Wind Pressure Humidity
    00:00 +15°C° 0 mm 1 mps 739 mmHg 63%
    01:00 +15°C° 0 mm 1 mps 739 mmHg 63%
    02:00 +14°C° 0 mm 1 mps 739 mmHg 63%
    03:00 +14°C° 0 mm 1 mps 738 mmHg 63%
    04:00 +14°C° 0 mm 1 mps 738 mmHg 62%
    05:00 +14°C° 0 mm 1 mps 738 mmHg 62%
    06:00 +14°C° 0 mm 1 mps 738 mmHg 62%
    07:00 +15°C° 0 mm 1 mps 738 mmHg 61%
    08:00 +15°C° 0 mm 1 mps 738 mmHg 61%
    09:00 +18°C° 0 mm 1 mps 738 mmHg 55%
    10:00 +20°C° 0 mm 1 mps 738 mmHg 50%
    11:00 +22°C° 0 mm 1 mps 738 mmHg 44%
    12:00 +23°C° 0 mm 1 mps 738 mmHg 42%
    13:00 +24°C° 0 mm 1 mps 738 mmHg 40%
    14:00 +25°C° 0 mm 2 mps 738 mmHg 38%
    15:00 +23°C° 0 mm 1 mps 738 mmHg 44%
    16:00 +21°C° 0 mm 1 mps 737 mmHg 49%
    17:00 +20°C° 0 mm 1 mps 737 mmHg 55%
    18:00 +19°C° 0 mm 1 mps 738 mmHg 58%
    19:00 +16°C° 0 mm 1 mps 738 mmHg 61%
    20:00 +15°C° 0 mm 1 mps 738 mmHg 65%
    21:00 +15°C° 0 mm 1 mps 738 mmHg 67%
    22:00 +14°C° 0 mm 1 mps 738 mmHg 69%
    23:00 +13°C° 0 mm 1 mps 739 mmHg 71%

    20 October, Friday

    Time Temperature Precipitation Wind Pressure Humidity
    00:00 +13°C° 0 mm 1 mps 739 mmHg 72%
    01:00 +13°C° 0 mm 1 mps 739 mmHg 74%
    02:00 +12°C° 0 mm 1 mps 739 mmHg 75%
    03:00 +12°C° 0 mm 1 mps 739 mmHg 77%
    04:00 +12°C° 0 mm 1 mps 739 mmHg 78%
    05:00 +11°C° 0 mm 1 mps 739 mmHg 79%
    06:00 +12°C° 0 mm 1 mps 739 mmHg 79%
    07:00 +12°C° 0 mm 1 mps 740 mmHg 78%
    08:00 +12°C° 0 mm 1 mps 740 mmHg 78%
    09:00 +14°C° 0 mm 1 mps 740 mmHg 72%
    10:00 +16°C° 0 mm 1 mps 740 mmHg 66%
    11:00 +18°C° 0 mm 2 mps 740 mmHg 60%
    12:00 +19°C° 0 mm 2 mps 740 mmHg 58%
    13:00 +19°C° 0 mm 2 mps 740 mmHg 57%
    14:00 +20°C° 0 mm 2 mps 740 mmHg 55%
    15:00 +19°C° 0 mm 2 mps 740 mmHg 61%
    16:00 +18°C° 0 mm 1 mps 740 mmHg 67%
    17:00 +16°C° 0 mm 1 mps 740 mmHg 74%
    18:00 +15°C° 0 mm 1 mps 740 mmHg 78%
    19:00 +14°C° 0 mm 1 mps 741 mmHg 82%
    20:00 +13°C° 0 mm 1 mps 741 mmHg 86%
    21:00 +13°C° 0 mm 1 mps 741 mmHg 87%
    22:00 +13°C° 0 mm 1 mps 741 mmHg 88%
    23:00 +12°C° 0 mm 1 mps 741 mmHg 89%

    21 October, Saturday

    Time Temperature Precipitation Wind Pressure Humidity
    00:00 +12°C° 0 mm 1 mps 741 mmHg 89%
    01:00 +12°C° 0 mm 1 mps 741 mmHg 89%
    02:00 +11°C° 0 mm 1 mps 741 mmHg 89%
    03:00 +11°C° 0 mm 1 mps 741 mmHg 88%
    04:00 +11°C° 0 mm 1 mps 741 mmHg 87%
    05:00 +11°C° 0 mm 1 mps 741 mmHg 87%
    06:00 +11°C° 0 mm 1 mps 741 mmHg 85%
    07:00 +11°C° 0 mm 1 mps 741 mmHg 83%
    08:00 +12°C° 0 mm 1 mps 741 mmHg 80%
    09:00 +14°C° 0 mm 1 mps 741 mmHg 71%
    10:00 +16°C° 0 mm 1 mps 741 mmHg 62%
    11:00 +19°C° 0 mm 1 mps 740 mmHg 53%
    12:00 +20°C° 0 mm 1 mps 740 mmHg 50%
    13:00 +21°C° 0 mm 1 mps 739 mmHg 46%
    14:00 +21°C° 0 mm 1 mps 739 mmHg 43%
    15:00 +20°C° 0 mm 1 mps 739 mmHg 48%
    16:00 +19°C° 0 mm 1 mps 738 mmHg 53%
    17:00 +18°C° 0 mm 1 mps 738 mmHg 58%
    18:00 +16°C° 0 mm 1 mps 738 mmHg 60%
    19:00 +15°C° 0 mm 2 mps 738 mmHg 63%
    20:00 +14°C° 0 mm 2 mps 738 mmHg 66%
    21:00 +14°C° 0 mm 2 mps 738 mmHg 67%
    22:00 +14°C° 0 mm 2 mps 738 mmHg 68%
    23:00 +13°C° 0 mm 2 mps 738 mmHg 70%

    22 October, Sunday

    Time Temperature Precipitation Wind Pressure Humidity
    00:00 +13°C° 0 mm 2 mps 738 mmHg 72%
    01:00 +13°C° 0 mm 2 mps 738 mmHg 73%
    02:00 +12°C° 0 mm 2 mps 738 mmHg 75%
    03:00 +12°C° 0 mm 2 mps 738 mmHg 76%
    04:00 +12°C° 0 mm 2 mps 738 mmHg 77%
    05:00 +12°C° 0 mm 2 mps 738 mmHg 78%
    06:00 +12°C° 0.1 mm 2 mps 739 mmHg 79%
    07:00 +13°C° 0.1 mm 1 mps 739 mmHg 81%
    08:00 +13°C° 0.1 mm 1 mps 739 mmHg 82%
    09:00 +14°C° 0 mm 1 mps 739 mmHg 79%
    10:00 +14°C° 0 mm 1 mps 739 mmHg 77%
    11:00 +15°C° 0 mm 1 mps 739 mmHg 74%
    12:00 +16°C° 0 mm 1 mps 739 mmHg 72%
    13:00 +18°C° 0 mm 1 mps 738 mmHg 70%
    14:00 +18°C° 0 mm 1 mps 738 mmHg 67%
    15:00 +16°C° 0 mm 2 mps 738 mmHg 72%
    16:00 +15°C° 0 mm 2 mps 738 mmHg 76%
    17:00 +15°C° 0 mm 2 mps 738 mmHg 80%
    18:00 +14°C° 0 mm 2 mps 738 mmHg 81%
    19:00 +12°C° 0 mm 3 mps 738 mmHg 82%
    20:00 +12°C° 0 mm 3 mps 738 mmHg 83%
    21:00 +12°C° 0 mm 4 mps 738 mmHg 83%
    22:00 +11°C° 0 mm 4 mps 738 mmHg 83%
    23:00 +11°C° 0 mm 4 mps 738 mmHg 83%
    Show more